Weather observations for the past three days for
Custer, Custer County Airport
Metric (Imperial)
Date Time (mdt) Wind (kph) Vis. (km) Weather Sky Cond. Temperature (ºC) Relative Humidity Wind Chill (°C) Heat Index (°C) Pressure Precipitation (cm)
Air Dwpt 6 hour altimeter (cm) sea level (mb) 1 hr 3 hr 6 hr
Max. Min.
25 03:53 N 9 16.09 Fair CLR 13.3 9.4 77% 76.15 1007.4
25 02:53 N 9 16.09 Fair CLR 14.4 8.9 70% 76.12 1006.6
25 01:53 NE 9 16.09 Fair CLR 16.1 8.9 63% 76.1 1006.2
25 00:53 Calm 16.09 Fair CLR 19.4 8.3 49% 76.12 1005.8
24 23:53 Calm 16.09 Fair CLR 17.2 11.1 26.7 13.9 68% 76.15 1006.8 0.15
24 22:53 E 6 16.09 Fair CLR 15 12.8 87% 76.15 1007.2
24 21:53 NE 6 16.09 Fair CLR 15.6 13.9 90% 76.15 1007.1
24 20:53 Calm 16.09 Fair CLR 16.7 13.9 84% 76.15 1007.2 0.15
24 19:53 N 6 16.09 Fair CLR 19.4 13.9 71% 76.05 1005.5
24 18:53 W 7 16.09 Thunderstorm in Vicinity Light Rain FEW050 SCT070 BKN110 17.2 12.8 76% 76.12 1007.5 0.15
24 17:53 E 17 16.09 Fair CLR 26.7 13.3 33.9 26.7 44% 27 76.07 1006.0
24 16:53 E 20 16.09 Fair CLR 27.8 11.7 37% 27 76.1 1006.4
24 15:53 E 15 16.09 Fair CLR 30.6 10.6 29% 29 76.12 1006.0
24 14:53 W 19 G 35 16.09 Fair CLR 33.3 1.1 13% 31 76.15 1005.9
24 13:53 SW 17 G 35 16.09 Fair CLR 32.8 0.6 13% 30 76.15 1006.2
24 12:53 SW 15 G 28 16.09 Fair CLR 32.8 1.7 14% 30 76.17 1006.9
24 11:53 W 19 G 39 16.09 Fair CLR 32.2 1.7 32.2 21.1 14% 30 76.2 1007.0
24 10:53 W 19 G 33 16.09 Fair CLR 31.7 1.1 14% 30 76.2 1006.6
24 09:53 Vrbl 7 16.09 Fair CLR 31.1 2.8 16% 29 76.17 1006.4
24 08:53 W 19 16.09 Fair CLR 28.9 1.1 17% 27 76.17 1006.7
24 07:53 W 7 16.09 Fair CLR 27.8 4.4 22% 27 76.15 1006.0
24 06:53 Vrbl 9 16.09 Fair CLR 23.9 3.3 26% 25 76.1 1005.6
24 05:53 W 6 16.09 Fair CLR 21.1 2.8 21.7 16.1 30% 76.05 1005.1
24 04:53 W 7 16.09 Fair CLR 18.9 3.3 36% 76.02 1004.6
24 03:53 W 9 16.09 Fair CLR 19.4 3.9 36% 76.02 1004.6
24 02:53 SW 9 16.09 Fair CLR 19.4 5.6 41% 76.02 1004.6
24 01:53 W 7 16.09 Fair CLR 20 7.2 44% 76.07 1005.1
24 00:53 Calm 16.09 Fair CLR 16.7 11.7 73% 76.1 1006.2
23 23:53 Calm 16.09 Fair CLR 18.3 11.7 29.4 16.7 66% 76.12 1006.7
23 22:53 SE 7 16.09 Fair CLR 22.8 10 44% 76.17 1006.6
23 21:53 E 7 16.09 Fair CLR 21.7 15.6 68% 76.2 1007.2
23 20:53 E 9 16.09 Fair CLR 22.8 15 62% 76.17 1007.2
23 19:53 E 11 16.09 Fair CLR 26.1 12.8 44% 26 76.2 1007.3
23 18:53 E 17 16.09 Fair CLR 28.3 11.7 36% 28 76.2 1007.6
23 17:53 E 22 16.09 A Few Clouds FEW120 29.4 11.7 33.3 28.9 33% 28 76.17 1008.1
23 16:53 Vrbl 9 G 28 16.09 Fair CLR 32.8 3.3 15% 31 76.2 1008.2
23 15:53 Vrbl 11 16.09 Fair CLR 31.1 3.3 17% 29 76.25 1008.6
23 14:53 W 15 G 33 16.09 Fair CLR 32.2 2.8 15% 30 76.28 1008.8
23 13:53 W 15 G 28 16.09 Fair CLR 32.2 2.8 15% 30 76.3 1009.4
23 12:53 SW 17 G 30 16.09 Fair CLR 30.6 3.9 18% 29 76.35 1009.9
23 11:53 SW 15 G 28 16.09 Fair CLR 29.4 10 29.4 13.3 30% 28 76.35 1010.3
23 10:53 Vrbl 7 16.09 Fair CLR 29.4 8.3 27% 28 76.35 1010.2
23 09:53 Vrbl 9 16.09 Fair CLR 28.3 8.9 30% 27 76.4 1010.6
23 08:53 Calm 16.09 Fair CLR 25.6 10.6 39% 26 76.4 1010.8
23 07:53 Calm 16.09 Fair CLR 22.8 10.6 46% 76.4 1010.8
23 06:53 Calm 16.09 Fair CLR 17.8 10 60% 76.4 1011.3
23 05:53 NW 6 16.09 Fair CLR 13.9 8.9 15.6 11.1 72% 76.38 1012.0
23 04:53 NW 6 16.09 Fair CLR 11.7 9.4 86% 76.38 1011.7
23 03:53 NW 6 16.09 Fair CLR 13.3 10 81% 76.38 1011.4
23 02:53 NW 11 16.09 Fair CLR 13.3 10 81% 76.43 1012.3
23 01:53 NW 7 16.09 Fair CLR 12.2 9.4 83% 76.48 1013.2
23 00:53 N 7 16.09 Fair CLR 15 10.6 75% 76.5 1013.2
22 23:53 N 6 16.09 Fair CLR 15 11.1 22.8 15 78% 76.53 1013.8
22 22:53 NE 11 16.09 Fair CLR 16.1 11.1 72% 76.56 1014.0
22 21:53 NE 9 16.09 Fair CLR 17.2 11.1 68% 76.56 1014.1
22 20:53 NE 9 16.09 Fair CLR 18.3 11.7 66% 76.5 1013.8
22 19:53 NE 13 16.09 Fair CLR 21.1 11.7 55% 76.5 1013.4
22 18:53 NE 15 16.09 Overcast BKN090 OVC110 22.8 11.1 48% 76.48 1012.9
22 17:53 E 19 16.09 Mostly Cloudy BKN090 22.8 11.1 27.2 22.8 48% 76.43 1013.0
22 16:53 W 19 16.09 A Few Clouds FEW100 25.6 5.6 28% 26 76.43 1012.5
22 15:53 W 15 G 30 16.09 A Few Clouds FEW075 26.7 7.2 29% 26 76.45 1012.6
22 14:53 W 11 16.09 Fair CLR 25.6 7.2 31% 26 76.45 1012.8
22 13:53 S 15 G 31 16.09 Fair CLR 24.4 8.9 37% 25 76.48 1013.1
22 12:53 S 15 G 30 16.09 Fair CLR 23.3 11.1 46% 76.5 1013.4
22 11:53 SW 9 16.09 Partly Cloudy SCT039 22.8 11.1 22.8 11.1 48% 76.53 1013.6
22 10:53 Vrbl 11 16.09 Fair CLR 21.1 11.1 53% 76.5 1013.7
22 09:53 Vrbl 7 16.09 Fair CLR 20.6 8.9 47% 76.53 1014.0
22 08:53 SE 6 16.09 Fair CLR 18.3 10 59% 76.53 1014.0
22 07:53 NE 6 16.09 Fair CLR 16.7 9.4 62% 76.53 1014.4
22 06:53 Calm 16.09 Fair CLR 14.4 9.4 72% 76.48 1013.9
22 05:53 NW 6 16.09 Fair CLR 11.1 8.3 14.4 10 83% 76.45 1014.4
22 04:53 NW 7 16.09 A Few Clouds FEW002 10.6 9.4 92% 76.43 1014.2
Date Time (mdt) Wind (kph) Vis. (km) Weather Sky Cond. Air Dwpt Max. Min. Relative Humidity Wind Chill (°C) Heat Index (°C) altimeter (cm) sea level (mb) 1 hr 3 hr 6 hr
6 hour
Temperature (ºC) Pressure Precipitation (cm)